Hourly Data Report for October 10, 2016

All times are specified in Local Standard Time (LST). Add 1 hour to adjust for Daylight Saving Time where and when it is observed.

KUGLUKTUK A
NUNAVUT

67°49'00.000" N
115°08'38.000" W
22.60 m
2300903
71938
YCO

Download Data

Hourly Data (October 2016)
Hourly Data Report for October 10, 2016
Temp Definition
°C
Dew Point Temp Definition
°C
Rel Hum Definition
%
Wind Dir Definition
10's deg

Wind Spd Definition
km/h
Visibility Definition
km
Stn Press Definition
kPa
Hmdx Definition


Wind Chill Definition


Weather Definition


TIME
00:00 Legend Double Dagger -10.4 -12.3 86 24 24 24.1 102.24   -19 LegendNANA
01:00 Legend Double Dagger -10.0 -11.8 87 24 28 24.1 102.21   -19 LegendNANA
02:00 Legend Double Dagger -10.3 -12.1 87 24 25 24.1 102.23   -19 Mainly Clear
03:00 Legend Double Dagger -9.7 -11.3 88 23 25 24.1 102.18   -18 LegendNANA
04:00 Legend Double Dagger -9.0 -10.5 89 23 22 24.1 102.15   -17 LegendNANA
05:00 Legend Double Dagger -8.3 -10.1 87 23 21 24.1 102.14   -16 Mainly Clear
06:00 Legend Double Dagger -8.0 -9.8 87 24 24 24.1 102.09   -16 LegendNANA
07:00 Legend Double Dagger -8.3 -10.1 87 24 28 24.1 102.07   -17 LegendNANA
08:00 Legend Double Dagger -8.3 -10.0 88 23 23 24.1 102.02   -16 Cloudy
09:00 Legend Double Dagger -8.0 -9.8 87 24 24 24.1 101.97   -16 LegendNANA
10:00 Legend Double Dagger -6.9 -8.9 86 25 25 24.1 101.96   -15 LegendNANA
11:00 Legend Double Dagger -6.6 -8.7 85 25 23 24.1 101.94   -14 Mostly Cloudy
12:00 Legend Double Dagger -5.1 -7.7 82 25 24 24.1 101.93   -12 LegendNANA
13:00 Legend Double Dagger -4.3 -6.6 84 25 24 24.1 101.90   -11 LegendNANA
14:00 Legend Double Dagger -2.4 -5.6 79 28 24 24.1 101.88   -9 Mostly Cloudy
15:00 Legend Double Dagger -2.0 -4.8 81 29 23 24.1 101.87   -8 LegendNANA
16:00 Legend Double Dagger -2.2 -4.7 83 30 26 24.1 101.89   -9 LegendNANA
17:00 Legend Double Dagger -2.3 -5.0 82 30 30 24.1 101.87   -9 Mostly Cloudy
18:00 Legend Double Dagger -2.6 -4.9 84 30 31 24.1 101.85   -10 LegendNANA
19:00 Legend Double Dagger -4.0 -6.0 86 26 25 24.1 101.83   -11 LegendNANA
20:00 Legend Double Dagger -2.9 -5.1 85 28 32 24.1 101.81   -10 Snow Grains
21:00 Legend Double Dagger -2.3 -4.8 83 27 33 16.1 101.77   -10 Snow Grains,Blowing Snow
22:00 Legend Double Dagger -2.5 -3.9 90 29 20 12.9 101.78   -8 Snow
23:00 Legend Double Dagger -1.5 -3.7 85 33 17 16.1 101.78   -7 Snow,Blowing Snow

Notes on Data Quality.

Legend

  • E = Estimated
  • M = Missing
  • NA = Not Available
  • ‡ = Partner data that is not subject to review by the National Climate Archives
Date modified: